Location: Milton
(43.5183°N, 79.8775°W)
Time: 14:11:42
(UTC+00:00)

QB50P2 - Visible Passes

Search period start: 27 March 2023 00:00
Search period end: 06 April 2023 00:00
Orbit: 584 x 598 km, 98.0° (Epoch: 26 March)

Date Brightness Start Highest point End Pass type
(mag) Time Alt. Az. Time Alt. Az. Time Alt. Az.
27 Mar ? 07:07:25 10° NNE 07:07:27 10° NNE 07:07:27 10° NNE visible
28 Mar ? 07:15:46 10° N 07:15:59 11° N 07:15:59 11° N visible
29 Mar ? 07:24:06 10° N 07:24:30 12° N 07:24:30 12° N visible
30 Mar ? 07:32:27 10° N 07:33:01 13° N 07:33:01 13° N visible
31 Mar ? 07:40:50 10° N 07:41:30 14° N 07:41:30 14° N visible
01 Apr ? 07:49:13 10° N 07:49:58 14° N 07:49:58 14° N visible
02 Apr ? 07:57:37 10° N 07:58:27 15° NNW 07:58:27 15° NNW visible
03 Apr ? 08:06:03 10° NNW 08:06:54 14° NNW 08:06:54 14° NNW visible
04 Apr ? 06:38:26 10° NNE 06:38:47 12° NNE 06:38:47 12° NNE visible
04 Apr ? 08:14:31 10° NNW 08:15:20 14° NNW 08:15:20 14° NNW visible
05 Apr ? 06:46:33 10° NNE 06:47:12 14° NNE 06:47:12 14° NNE visible
05 Apr ? 08:23:02 10° NNW 08:23:46 13° NNW 08:23:46 13° NNW visible
